Weather History for Gallup, NM

Change the Weather History Date:

Tuesday, February 12, 2013

  Actual Average Record
Temperature  
Mean Temperature 26 °F -  
Max Temperature 39 °F 46 °F 58 °F (1988)
Min Temperature 14 °F 16 °F 0 °F (2006)
Degree Days  
Heating Degree Days 38    
Moisture  
Dew Point 13 °F    
Average Humidity 59    
Maximum Humidity 78    
Minimum Humidity 36    
Precipitation  
Precipitation 0.00 in - - ()
Sea Level Pressure  
Sea Level Pressure 30.25 in    
Wind  
Wind Speed 3 mph (WSW)    
Max Wind Speed 12 mph    
Max Gust Speed -    
Visibility 10 miles    
Events      
Averages and records for this station are not official NWS values.
T = Trace of Precipitation, MM = Missing Value Source: NWS Daily Summary

Daily Weather History Graph

Daily Weather History Graph

Search for Another Location

Airport:

Trip Planner

Search our weather history database for the weather conditions in past years. The results will help you decide how hot, cold, wet, or windy it might be!

Date:

Astronomy

Feb. 12, 2013 Rise Set
Actual Time 7:04 AM MST 5:54 PM MST
Civil Twilight 6:38 AM MST 6:20 PM MST
Nautical Twilight 6:08 AM MST 6:50 PM MST
Astronomical Twilight 5:38 AM MST 7:20 PM MST
Moon 8:11 AM MST (2/12) 8:49 PM MST (2/12)
Length of Visible Light 11h 42m
Length of Day
10h 50m
Waxing Crescent, 8% of the Moon is Illuminated
Feb 12
Waxing Crescent
Feb 17
First Quarter
Feb 25
Full
Mar 4
Last Quarter
Mar 11
New

Hourly Weather History & Observations

Time (MST) Temp. Windchill Dew Point Humidity Pressure Visibility Wind Dir Wind Speed Gust Speed Precip Events Conditions
12:53 AM 25.0 °F - 16.0 °F 69% 30.11 in 10.0 mi Calm Calm - N/A   Scattered Clouds
1:53 AM 18.0 °F 8.7 °F 12.0 °F 78% 30.16 in 10.0 mi West 6.9 mph - N/A   Clear
2:53 AM 18.0 °F - 12.0 °F 78% 30.15 in 10.0 mi Calm Calm - N/A   Clear
3:53 AM 17.1 °F - 10.0 °F 74% 30.17 in 10.0 mi Calm Calm - N/A   Clear
4:53 AM 14.0 °F 5.1 °F 7.0 °F 74% 30.21 in 10.0 mi South 5.8 mph - N/A   Clear
5:53 AM 14.0 °F - 7.0 °F 74% 30.25 in 10.0 mi Calm Calm - N/A   Clear
6:53 AM 14.0 °F - 6.1 °F 71% 30.28 in 10.0 mi Calm Calm - N/A   Clear
7:53 AM 16.0 °F - 8.1 °F 71% 30.29 in 10.0 mi Calm Calm - N/A   Clear
8:53 AM 21.9 °F - 14.0 °F 72% 30.28 in 10.0 mi Calm Calm - N/A   Clear
9:53 AM 26.1 °F - 14.0 °F 60% 30.25 in 10.0 mi Calm Calm - N/A   Clear
10:53 AM 30.0 °F 25.2 °F 12.9 °F 49% 30.24 in 10.0 mi SW 4.6 mph - N/A   Clear
11:53 AM 33.1 °F 30.0 °F 12.0 °F 42% 30.21 in 10.0 mi Variable 3.5 mph - N/A   Clear
12:53 PM 35.1 °F - 15.1 °F 44% 30.20 in 10.0 mi Calm Calm - N/A   Clear
1:53 PM 37.0 °F 33.3 °F 14.0 °F 39% 30.21 in 10.0 mi West 4.6 mph - N/A   Clear
2:53 PM 39.0 °F 33.4 °F 14.0 °F 36% 30.18 in 10.0 mi WSW 8.1 mph - N/A   Clear
3:53 PM 39.0 °F 31.8 °F 18.0 °F 43% 30.21 in 10.0 mi SW 11.5 mph - N/A   Clear
4:53 PM 37.9 °F 30.9 °F 19.0 °F 47% 30.25 in 10.0 mi SW 10.4 mph - N/A   Clear
5:53 PM 34.0 °F 28.0 °F 17.1 °F 50% 30.29 in 10.0 mi SSW 6.9 mph - N/A   Clear
6:53 PM 33.1 °F 26.1 °F 12.0 °F 42% 30.31 in 10.0 mi WNW 8.1 mph - N/A   Clear
7:53 PM 30.0 °F 25.2 °F 12.9 °F 49% 30.36 in 10.0 mi WNW 4.6 mph - N/A   Clear
8:53 PM 25.0 °F - 12.9 °F 60% 30.34 in 10.0 mi Calm Calm - N/A   Clear
9:53 PM 23.0 °F - 12.0 °F 63% 30.34 in 10.0 mi Calm Calm - N/A   Clear
10:53 PM 23.0 °F - 10.9 °F 60% 30.30 in 10.0 mi Calm Calm - N/A   Clear
11:53 PM 21.0 °F - 12.0 °F 68% 30.30 in 10.0 mi Calm Calm - N/A   Clear